datetime,avg net radiation
2000-04-19,277.69
2000-04-20,516.07
2000-04-21,614.98
2000-04-22,489.0
2000-04-23,463.0
2000-04-24,508.0
2000-04-25,567.0
2000-04-26,629.0
2000-04-27,486.0
2000-04-28,516.0
2000-04-29,707.0
2000-04-30,716.0
2000-05-01,411.0
2000-05-02,206.0
2000-05-03,474.0
2000-05-04,495.0
2000-05-05,712.0
2000-05-06,379.0
2000-05-07,379.0
2000-05-08,689.0
2000-05-09,648.0
2000-05-10,503.0
2000-05-11,526.0
2000-05-12,428.0
2000-05-13,297.0
2000-05-14,442.0
2000-05-15,396.0
2000-05-16,718.0
2000-05-17,636.0
2000-05-18,637.0
2000-05-19,723.0
2000-05-20,723.0
2000-05-21,727.0
2000-05-22,669.0
2000-05-23,694.0
2000-05-24,707.0
2000-05-25,630.0
2000-05-26,666.0
2000-05-27,555.0
2000-05-28,577.0
2000-05-29,665.0
2000-05-30,704.0
2000-05-31,721.0
2000-06-01,686.0
2000-06-02,678.0
2000-06-03,689.0
2000-06-04,664.0
2000-06-05,640.0
2000-06-06,687.0
2000-06-07,625.0
2000-06-08,393.0
2000-06-09,651.0
2000-06-10,676.0
2000-06-11,418.0
2000-06-12,340.0
2000-06-13,734.0
2000-06-14,744.0
2000-06-15,687.0
2000-06-16,697.0
2000-06-17,703.0
2000-06-18,742.0
2000-06-19,793.0
2000-06-20,723.0
2000-06-21,760.0
2000-06-22,740.0
2000-06-23,645.0
2000-06-24,543.0
2000-06-25,580.0
2000-06-26,541.0
2000-06-27,440.0
2000-06-28,488.0
2000-06-29,481.0
2000-06-30,463.0
2000-07-01,445.0
2000-07-02,387.0
2000-07-03,542.0
2000-07-04,361.0
2000-07-05,209.0
2000-07-06,447.0
2000-07-07,441.0
2000-07-08,489.0
2000-07-09,606.0
2000-07-10,644.0
2000-07-11,685.0
2000-07-12,688.0
2000-07-13,676.0
2000-07-14,683.0
2000-07-15,652.0
2000-07-16,488.0
2000-07-17,576.0
2000-07-18,635.0
2000-07-19,680.0
2000-07-20,675.0
2000-07-21,688.0
2000-07-22,673.0
2000-07-23,682.0
2000-07-24,673.0
2000-07-25,685.0
2000-07-26,679.0
2000-07-27,669.0
2000-07-28,676.0
2000-07-29,675.0
2000-07-30,613.0
2000-07-31,659.0
2000-08-01,668.0
2000-08-02,654.0
2000-08-03,657.0
2000-08-04,641.0
2000-08-05,598.0
2000-08-06,662.0
2000-08-07,635.0
2000-08-08,644.0
2000-08-09,615.0
2000-08-10,576.0
2000-08-11,662.0
2000-08-12,648.0
2000-08-13,664.0
2000-08-14,654.0
2000-08-15,651.0
2000-08-16,648.0
2000-08-17,641.0
2000-08-18,647.0
2000-08-19,624.0
2000-08-20,623.0
2000-08-21,619.0
2000-08-22,589.0
2000-08-23,603.0
2000-08-24,599.0
2000-08-25,589.0
2000-08-26,575.0
2000-08-27,577.0
2000-08-28,577.0
2000-08-29,531.0
2000-08-30,533.0
2000-08-31,512.0
2000-09-01,153.0
2000-09-02,466.0
2000-09-03,429.0
2000-09-04,198.0
2000-09-05,460.0
2000-09-06,524.0
2000-09-07,524.0
2000-09-08,487.0
2000-09-09,514.0
2000-09-10,460.0
2000-09-11,492.0
2000-09-12,471.0
2000-09-13,361.0
2000-09-14,449.0
2000-09-15,473.0
2000-09-16,433.0
2000-09-17,480.0
2000-09-18,486.0
2000-09-19,481.0
2000-09-20,486.0
2000-09-21,479.0
2000-09-22,418.0
2000-09-23,480.0
2000-09-24,474.0
2000-09-25,472.0
2000-09-26,463.0
2000-09-27,419.0
2000-09-28,405.0
2000-09-29,418.0
2000-09-30,418.0
2000-10-01,424.0
2000-10-02,415.0
2000-10-03,398.0
2000-10-04,414.0
2000-10-05,399.0
2000-10-06,403.0
2000-10-07,391.0
2000-10-08,387.0
2000-10-09,80.0
2000-10-10,141.0
2000-10-11,140.0
2000-10-12,190.0
2000-10-13,282.0
2000-10-14,286.0
2000-10-15,298.0
2000-10-16,325.0
2000-10-17,302.0
2000-10-18,232.0
2000-10-19,315.0
2000-10-20,107.0
2000-10-21,346.0
2000-10-22,347.0
2000-10-23,336.0
2000-10-24,299.0
2000-10-25,70.0
2000-10-26,269.0
2000-10-27,245.0
2000-10-28,137.0
2000-10-29,174.0
2000-10-30,283.0
2000-10-31,298.0
2000-11-01,140.0
2000-11-02,274.0
2000-11-03,275.0
2000-11-04,291.0
2000-11-05,194.0
2000-11-06,318.0
2000-11-07,167.0
2000-11-08,219.0
2000-11-09,196.0
2000-11-10,184.0
2000-11-11,286.0
2000-11-12,250.0
2000-11-13,151.0
2000-11-14,98.0
2000-11-15,191.0
2000-11-16,226.0
2000-11-17,126.0
2000-11-18,193.0
2000-11-19,181.0
2000-11-20,199.0
2000-11-21,145.0
2000-11-22,263.0
2000-11-23,140.0
2000-11-24,141.0
2000-11-25,161.0
2000-11-26,121.0
2000-11-27,148.0
2000-11-28,104.0
2000-11-29,122.0
2000-11-30,184.0
2000-12-01,208.0
2000-12-02,167.0
2000-12-03,153.0
2000-12-04,145.0
2000-12-05,166.0
2000-12-06,143.0
2000-12-07,100.0
2000-12-08,110.0
2000-12-09,46.0
2000-12-10,212.0
2000-12-11,37.0
2000-12-12,95.0
2000-12-13,86.0
2000-12-14,68.0
2000-12-15,122.0
2000-12-16,164.0
2000-12-17,173.0
2000-12-18,183.0
2000-12-19,161.0
2000-12-20,98.0
2000-12-21,164.0
2000-12-22,80.0
2000-12-23,68.0
2000-12-24,167.0
2000-12-25,90.0
2000-12-26,138.0
2000-12-27,113.0
2000-12-28,158.0
2000-12-29,144.0
2000-12-30,172.0
2000-12-31,167.0
2001-01-01,172.0
2001-01-02,167.0
2001-01-03,146.0
2001-01-04,220.0
2001-01-05,97.0
2001-01-06,155.0
2001-01-07,49.0
2001-01-08,74.0
2001-01-09,62.0
2001-01-10,78.0
2001-01-11,117.0
2001-01-12,46.0
2001-01-13,73.0
2001-01-14,161.0
2001-01-15,205.0
2001-01-16,209.0
2001-01-17,155.0
2001-01-18,81.0
2001-01-19,238.0
2001-01-20,82.0
2001-01-21,46.0
2001-01-22,197.0
2001-01-23,76.0
2001-01-24,139.0
2001-01-25,129.0
2001-01-26,189.0
2001-01-27,276.0
2001-01-28,188.0
2001-01-29,201.0
2001-01-30,159.0
2001-01-31,251.0
2001-02-01,136.0
2001-02-02,153.0
2001-02-03,74.0
2001-02-04,175.0
2001-02-05,291.0
2001-02-06,77.0
2001-02-07,307.0
2001-02-08,174.0
2001-02-09,120.0
2001-02-10,199.0
2001-02-11,145.0
2001-02-12,309.0
2001-02-13,315.0
2001-02-14,313.0
2001-02-15,244.0
2001-02-16,183.0
2001-02-17,131.0
2001-02-18,189.0
2001-02-19,200.0
2001-02-20,160.0
2001-02-21,228.0
2001-02-22,158.0
2001-02-23,300.0
2001-02-24,142.0
2001-02-25,227.0
2001-02-26,392.0
2001-02-27,402.0
2001-02-28,399.0
2001-03-01,153.0
2001-03-02,217.0
2001-03-03,158.0
2001-03-04,96.0
2001-03-05,135.0
2001-03-06,339.0
2001-03-07,336.0
2001-03-08,262.0
2001-03-09,258.0
2001-03-10,365.0
2001-03-11,392.0
2001-03-12,397.0
2001-03-13,387.0
2001-03-14,378.0
2001-03-15,167.0
2001-03-16,317.0
2001-03-17,171.0
2001-03-18,316.0
2001-03-19,266.0
2001-03-20,172.0
2001-03-21,289.0
2001-03-22,336.0
2001-03-23,376.0
2001-03-24,343.0
2001-03-25,356.0
2001-03-26,424.0
2001-03-27,251.0
2001-03-28,257.0
2001-03-29,503.0
2001-03-30,559.0
2001-03-31,498.0
2001-04-01,584.0
2001-04-02,440.0
2001-04-03,533.0
2001-04-04,567.0
2001-04-05,572.0
2001-04-06,171.0
2001-04-07,496.0
2001-04-08,455.0
2001-04-09,549.0
2001-04-10,347.0
2001-04-11,524.0
2001-04-12,475.0
2001-04-13,421.0
2001-04-14,570.0
2001-04-15,485.0
2001-04-16,419.0
2001-04-17,516.0
2001-04-18,158.0
2001-04-19,356.0
2001-04-20,379.0
2001-04-21,564.0
2001-04-22,514.0
2001-04-23,537.0
2001-04-24,672.0
2001-04-25,671.0
2001-04-26,691.0
2001-04-27,560.0
2001-04-28,644.0
2001-04-29,517.0
2001-04-30,487.0
2001-05-01,703.0
2001-05-02,703.0
2001-05-03,689.0
2001-05-04,662.0
2001-05-05,688.0
2001-05-06,693.0
2001-05-07,700.0
2001-05-08,658.0
2001-05-09,658.0
2001-05-10,712.0
2001-05-11,705.0
2001-05-12,487.0
2001-05-13,663.0
2001-05-14,200.0
2001-05-15,301.0
2001-05-16,675.0
2001-05-17,658.0
2001-05-18,716.0
2001-05-19,710.0
2001-05-20,723.0
2001-05-21,738.0
2001-05-22,746.0
2001-05-23,721.0
2001-05-24,703.0
2001-05-25,603.0
2001-05-26,666.0
2001-05-27,635.0
2001-05-28,697.0
2001-05-29,733.0
2001-05-30,723.0
2001-05-31,750.0
2001-06-01,688.0
2001-06-02,748.0
2001-06-03,742.0
2001-06-04,649.0
2001-06-05,523.0
2001-06-06,683.0
2001-06-07,704.0
2001-06-08,651.0
2001-06-09,726.0
2001-06-10,532.0
2001-06-11,409.0
2001-06-12,749.0
2001-06-13,751.0
2001-06-14,757.0
2001-06-15,747.0
2001-06-16,724.0
2001-06-17,750.0
2001-06-18,747.0
2001-06-19,729.0
2001-06-20,741.0
2001-06-21,746.0
2001-06-22,738.0
2001-06-23,702.0
2001-06-24,471.0
2001-06-25,435.0
2001-06-26,212.0
2001-06-27,481.0
2001-06-28,713.0
2001-06-29,750.0
2001-06-30,722.0
2001-07-01,700.0
2001-07-02,752.0
2001-07-03,492.0
2001-07-04,539.0
2001-07-05,695.0
2001-07-06,742.0
2001-07-07,576.0
2001-07-08,750.0
2001-07-09,539.0
2001-07-10,464.0
2001-07-11,377.0
2001-07-12,640.0
2001-07-13,697.0
2001-07-14,740.0
2001-07-15,730.0
2001-07-16,702.0
2001-07-17,716.0
2001-07-18,633.0
2001-07-19,515.0
2001-07-20,664.0
2001-07-21,532.0
2001-07-22,680.0
2001-07-23,719.0
2001-07-24,715.0
2001-07-25,727.0
2001-07-26,720.0
2001-07-27,701.0
2001-07-28,710.0
2001-07-29,495.0
2001-07-30,527.0
2001-07-31,698.0
2001-08-01,680.0
2001-08-02,692.0
2001-08-03,663.0
2001-08-04,535.0
2001-08-05,670.0
2001-08-06,667.0
2001-08-07,643.0
2001-08-08,518.0
2001-08-09,485.0
2001-08-10,613.0
2001-08-11,590.0
2001-08-12,569.0
2001-08-13,642.0
2001-08-14,656.0
2001-08-15,638.0
2001-08-16,617.0
2001-08-17,526.0
2001-08-18,627.0
2001-08-19,632.0
2001-08-20,561.0
2001-08-21,557.0
2001-08-22,410.0
2001-08-23,411.0
2001-08-24,588.0
2001-08-25,596.0
2001-08-26,598.0
2001-08-27,603.0
2001-08-28,589.0
2001-08-29,561.0
2001-08-30,546.0
2001-08-31,536.0
2001-09-01,544.0
2001-09-02,543.0
2001-09-03,543.0
2001-09-04,538.0
2001-09-05,540.0
2001-09-06,534.0
2001-09-07,543.0
2001-09-08,549.0
2001-09-09,499.0
2001-09-10,504.0
2001-09-11,243.0
2001-09-12,399.0
2001-09-13,199.0
2001-09-14,406.0
2001-09-15,317.0
2001-09-16,421.0
2001-09-17,480.0
2001-09-18,481.0
2001-09-19,498.0
2001-09-20,489.0
2001-09-21,480.0
2001-09-22,473.0
2001-09-23,370.0
2001-09-24,357.0
2001-09-25,364.0
2001-09-26,307.0
2001-09-27,342.0
2001-09-28,298.0
2001-09-29,448.0
2001-09-30,446.0
2001-10-01,432.0
2001-10-02,434.0
2001-10-03,429.0
2001-10-04,418.0
2001-10-05,396.0
2001-10-06,409.0
2001-10-07,304.0
2001-10-08,407.0
2001-10-09,399.0
2001-10-10,330.0
2001-10-11,331.0
2001-10-12,387.0
2001-10-13,380.0
2001-10-14,379.0
2001-10-15,288.0
2001-10-16,142.0
2001-10-17,364.0
2001-10-18,346.0
2001-10-19,339.0
2001-10-20,332.0
2001-10-21,329.0
2001-10-22,158.0
2001-10-23,326.0
2001-10-24,291.0
2001-10-25,333.0
2001-10-26,320.0
2001-10-27,156.0
2001-10-28,132.0
2001-10-29,92.0
2001-10-30,222.0
2001-10-31,216.0
2001-11-01,264.0
2001-11-02,220.0
2001-11-03,306.0
2001-11-04,301.0
2001-11-05,295.0
2001-11-06,244.0
2001-11-07,291.0
2001-11-08,284.0
2001-11-09,253.0
2001-11-10,232.0
2001-11-11,172.0
2001-11-12,51.0
2001-11-13,74.0
2001-11-14,168.0
2001-11-15,114.0
2001-11-16,71.0
2001-11-17,194.0
2001-11-18,173.0
2001-11-19,70.0
2001-11-20,47.0
2001-11-21,28.0
2001-11-22,215.0
2001-11-23,110.0
2001-11-24,101.0
2001-11-25,175.0
2001-11-26,206.0
2001-11-27,153.0
2001-11-28,115.0
2001-11-29,188.0
2001-11-30,204.0
2001-12-01,81.0
2001-12-02,139.0
2001-12-03,220.0
2001-12-04,162.0
2001-12-05,98.0
2001-12-06,90.0
2001-12-07,184.0
2001-12-08,185.0
2001-12-09,214.0
2001-12-10,197.0
2001-12-11,111.0
2001-12-12,102.0
2001-12-13,74.0
2001-12-14,186.0
2001-12-15,110.0
2001-12-16,134.0
2001-12-17,182.0
2001-12-18,82.0
2001-12-19,91.0
2001-12-20,103.0
2001-12-21,87.0
2001-12-22,132.0
2001-12-23,153.0
2001-12-24,202.0
2001-12-25,74.0
2001-12-26,84.0
2001-12-27,58.0
2001-12-28,119.0
2001-12-29,71.0
2001-12-30,58.0
2001-12-31,84.0
2002-01-01,35.0
2002-01-02,31.0
2002-01-03,161.0
2002-01-04,129.0
2002-01-05,73.0
2002-01-06,58.0
2002-01-07,142.0
2002-01-08,108.0
2002-01-09,184.0
2002-01-10,171.0
2002-01-11,117.0
2002-01-12,225.0
2002-01-13,185.0
2002-01-14,104.0
2002-01-15,227.0
2002-01-16,233.0
2002-01-17,227.0
2002-01-18,210.0
2002-01-19,201.0
2002-01-20,176.0
2002-01-21,109.0
2002-01-22,221.0
2002-01-23,210.0
2002-01-24,196.0
2002-01-25,104.0
2002-01-26,152.0
2002-01-27,269.0
2002-01-28,239.0
2002-01-29,277.0
2002-01-30,263.0
2002-01-31,190.0
2002-02-01,237.0
2002-02-02,276.0
2002-02-03,291.0
2002-02-04,292.0
2002-02-05,230.0
2002-02-06,265.0
2002-02-07,133.0
2002-02-08,253.0
2002-02-09,267.0
2002-02-10,275.0
2002-02-11,245.0
2002-02-12,307.0
2002-02-13,211.0
2002-02-14,326.0
2002-02-15,286.0
2002-02-16,124.0
2002-02-17,110.0
2002-02-18,247.0
2002-02-19,73.0
2002-02-20,317.0
2002-02-21,251.0
2002-02-22,300.0
2002-02-23,192.0
2002-02-24,371.0
2002-02-25,375.0
2002-02-26,355.0
2002-02-27,394.0
2002-02-28,394.0
2002-03-01,392.0
2002-03-02,415.0
2002-03-03,419.0
2002-03-04,423.0
2002-03-05,175.0
2002-03-06,207.0
2002-03-07,276.0
2002-03-08,442.0
2002-03-09,231.0
2002-03-10,220.0
2002-03-11,262.0
2002-03-12,297.0
2002-03-13,364.0
2002-03-14,408.0
2002-03-15,326.0
2002-03-16,281.0
2002-03-17,400.0
2002-03-18,418.0
2002-03-19,480.0
2002-03-20,408.0
2002-03-21,217.0
2002-03-22,305.0
2002-03-23,335.0
2002-03-24,367.0
2002-03-25,468.0
2002-03-26,505.0
2002-03-27,515.0
2002-03-28,454.0
2002-03-29,536.0
2002-03-30,534.0
2002-03-31,541.0
2002-04-01,546.0
2002-04-02,552.0
2002-04-03,551.0
2002-04-04,521.0
2002-04-05,391.0
2002-04-06,348.0
2002-04-07,488.0
2002-04-08,495.0
2002-04-09,268.0
2002-04-10,445.0
2002-04-11,372.0
2002-04-12,532.0
2002-04-13,347.0
2002-04-14,584.0
2002-04-15,403.0
2002-04-16,218.0
2002-04-17,462.0
2002-04-18,465.0
2002-04-19,539.0
2002-04-20,610.0
2002-04-21,626.0
2002-04-22,625.0
2002-04-23,649.0
2002-04-24,637.0
2002-04-25,620.0
2002-04-26,536.0
2002-04-27,480.0
2002-04-28,577.0
2002-04-29,231.0
2002-04-30,119.0
2002-05-01,528.0
2002-05-02,668.0
2002-05-03,694.0
2002-05-04,690.0
2002-05-05,664.0
2002-05-06,696.0
2002-05-07,722.0
2002-05-08,720.0
2002-05-09,651.0
2002-05-10,432.0
2002-05-11,725.0
2002-05-12,709.0
2002-05-13,534.0
2002-05-14,716.0
2002-05-15,595.0
2002-05-16,719.0
2002-05-17,672.0
2002-05-18,541.0
2002-05-19,156.0
2002-05-20,604.0
2002-05-21,562.0
2002-05-22,671.0
2002-05-23,727.0
2002-05-24,691.0
2002-05-25,512.0
2002-05-26,569.0
2002-05-27,382.0
2002-05-28,520.0
2002-05-29,641.0
2002-05-30,738.0
2002-05-31,605.0
2002-06-01,604.0
2002-06-02,729.0
2002-06-03,708.0
2002-06-04,717.0
2002-06-05,729.0
2002-06-06,752.0
2002-06-07,687.0
2002-06-08,613.0
2002-06-09,434.0
2002-06-10,691.0
2002-06-11,765.0
2002-06-12,742.0
2002-06-13,745.0
2002-06-14,752.0
2002-06-15,753.0
2002-06-16,740.0
2002-06-17,466.0
2002-06-18,693.0
2002-06-19,772.0
2002-06-20,708.0
2002-06-21,601.0
2002-06-22,615.0
2002-06-23,721.0
2002-06-24,744.0
2002-06-25,739.0
2002-06-26,651.0
2002-06-27,658.0
2002-06-28,476.0
2002-06-29,732.0
2002-06-30,762.0
2002-07-01,759.0
2002-07-02,743.0
2002-07-03,734.0
2002-07-04,752.0
2002-07-05,729.0
2002-07-06,730.0
2002-07-07,682.0
2002-07-08,759.0
2002-07-09,752.0
2002-07-10,736.0
2002-07-11,697.0
2002-07-12,552.0
2002-07-13,698.0
2002-07-14,687.0
2002-07-15,697.0
2002-07-16,729.0
2002-07-17,724.0
2002-07-18,640.0
2002-07-19,677.0
2002-07-20,689.0
2002-07-21,593.0
2002-07-22,345.0
2002-07-23,536.0
2002-07-24,662.0
2002-07-25,629.0
2002-07-26,634.0
2002-07-27,672.0
2002-07-28,666.0
2002-07-29,591.0
2002-07-30,575.0
2002-07-31,554.0
2002-08-01,634.0
2002-08-02,574.0
2002-08-03,530.0
2002-08-04,338.0
2002-08-05,515.0
2002-08-06,582.0
2002-08-07,670.0
2002-08-08,657.0
2002-08-09,668.0
2002-08-10,630.0
2002-08-11,630.0
2002-08-12,653.0
2002-08-13,654.0
2002-08-14,584.0
2002-08-15,621.0
2002-08-16,622.0
2002-08-17,563.0
2002-08-18,593.0
2002-08-19,557.0
2002-08-20,584.0
2002-08-21,608.0
2002-08-22,576.0
2002-08-23,440.0
2002-08-24,558.0
2002-08-25,548.0
2002-08-26,584.0
2002-08-27,579.0
2002-08-28,574.0
2002-08-29,522.0
2002-08-30,553.0
2002-08-31,585.0
2002-09-01,561.0
2002-09-02,554.0
2002-09-03,538.0
2002-09-04,519.0
2002-09-05,567.0
2002-09-06,433.0
2002-09-07,506.0
2002-09-08,483.0
2002-09-09,533.0
2002-09-10,530.0
2002-09-11,523.0
2002-09-12,511.0
2002-09-13,502.0
2002-09-14,327.0
2002-09-15,429.0
2002-09-16,442.0
2002-09-17,358.0
2002-09-18,495.0
2002-09-19,495.0
2002-09-20,493.0
2002-09-21,485.0
2002-09-22,479.0
2002-09-23,482.0
2002-09-24,478.0
2002-09-25,481.0
2002-09-26,388.0
2002-09-27,459.0
2002-09-28,451.0
2002-09-29,422.0
2002-09-30,370.0
2002-10-01,412.0
2002-10-02,425.0
2002-10-03,234.0
2002-10-04,337.0
2002-10-05,372.0
2002-10-06,388.0
2002-10-07,388.0
2002-10-08,388.0
2002-10-09,376.0
2002-10-10,332.0
2002-10-11,371.0
2002-10-12,371.0
2002-10-13,364.0
2002-10-14,364.0
2002-10-15,361.0
2002-10-16,354.0
2002-10-17,354.0
2002-10-18,300.0
2002-10-19,338.0
2002-10-20,301.0
2002-10-21,302.0
2002-10-22,309.0
2002-10-23,307.0
2002-10-24,242.0
2002-10-25,279.0
2002-10-26,242.0
2002-10-27,224.0
2002-10-28,247.0
2002-10-29,284.0
2002-10-30,303.0
2002-10-31,308.0
2002-11-01,305.0
2002-11-02,285.0
2002-11-03,282.0
2002-11-04,272.0
2002-11-05,276.0
2002-11-06,150.0
2002-11-07,157.0
2002-11-08,187.0
2002-11-09,94.0
2002-11-10,198.0
2002-11-11,199.0
2002-11-12,67.0
2002-11-13,102.0
2002-11-14,249.0
2002-11-15,185.0
2002-11-16,212.0
2002-11-17,216.0
2002-11-18,176.0
2002-11-19,238.0
2002-11-20,232.0
2002-11-21,158.0
2002-11-22,154.0
2002-11-23,237.0
2002-11-24,121.0
2002-11-25,244.0
2002-11-26,236.0
2002-11-27,225.0
2002-11-28,225.0
2002-11-29,186.0
2002-11-30,213.0
2002-12-01,156.0
2002-12-02,187.0
2002-12-03,173.0
2002-12-04,132.0
2002-12-05,111.0
2002-12-06,178.0
2002-12-07,201.0
2002-12-08,139.0
2002-12-09,88.0
2002-12-10,113.0
2002-12-11,72.0
2002-12-12,140.0
2002-12-13,55.0
2002-12-14,108.0
2002-12-15,89.0
2002-12-16,39.0
2002-12-17,152.0
2002-12-18,143.0
2002-12-19,86.0
2002-12-20,116.0
2002-12-21,219.0
2002-12-22,141.0
2002-12-23,208.0
2002-12-24,180.0
2002-12-25,172.0
2002-12-26,56.0
2002-12-27,42.0
2002-12-28,105.0
2002-12-29,145.0
2002-12-30,67.0
2002-12-31,171.0
2003-01-01,62.0
2003-01-02,124.0
2003-01-03,130.0
2003-01-04,120.0
2003-01-05,152.0
2003-01-06,203.0
2003-01-07,221.0
2003-01-08,212.0
2003-01-09,102.0
2003-01-10,111.0
2003-01-11,78.0
2003-01-12,61.0
2003-01-13,71.0
2003-01-14,64.0
2003-01-15,73.0
2003-01-16,84.0
2003-01-17,136.0
2003-01-18,227.0
2003-01-19,201.0
2003-01-20,181.0
2003-01-21,209.0
2003-01-22,84.0
2003-01-23,93.0
2003-01-24,64.0
2003-01-25,167.0
2003-01-26,99.0
2003-01-27,67.0
2003-01-28,119.0
2003-01-29,98.0
2003-01-30,117.0
2003-01-31,158.0
2003-02-01,154.0
2003-02-02,280.0
2003-02-03,230.0
2003-02-04,293.0
2003-02-05,295.0
2003-02-06,260.0
2003-02-07,306.0
2003-02-08,303.0
2003-02-09,308.0
2003-02-10,319.0
2003-02-11,244.0
2003-02-12,237.0
2003-02-13,130.0
2003-02-14,289.0
2003-02-15,99.0
2003-02-16,252.0
2003-02-17,278.0
2003-02-18,284.0
2003-02-19,175.0
2003-02-20,247.0
2003-02-21,291.0
2003-02-22,363.0
2003-02-23,279.0
2003-02-24,223.0
2003-02-25,386.0
2003-02-26,234.0
2003-02-27,197.0
2003-02-28,176.0
2003-03-01,331.0
2003-03-02,439.0
2003-03-03,408.0
2003-03-04,422.0
2003-03-05,407.0
2003-03-06,260.0
2003-03-07,352.0
2003-03-08,405.0
2003-03-09,123.0
2003-03-10,396.0
2003-03-11,346.0
2003-03-12,249.0
2003-03-13,286.0
2003-03-14,383.0
2003-03-15,273.0
2003-03-16,207.0
2003-03-17,389.0
2003-03-18,474.0
2003-03-19,283.0
2003-03-20,369.0
2003-03-21,295.0
2003-03-22,179.0
2003-03-23,493.0
2003-03-24,504.0
2003-03-25,170.0
2003-03-26,352.0
2003-03-27,513.0
2003-03-28,521.0
2003-03-29,501.0
2003-03-30,545.0
2003-03-31,345.0
2003-04-01,530.0
2003-04-02,381.0
2003-04-03,321.0
2003-04-04,459.0
2003-04-05,385.0
2003-04-06,324.0
2003-04-07,583.0
2003-04-08,363.0
2003-04-09,479.0
2003-04-10,385.0
2003-04-11,595.0
2003-04-12,269.0
2003-04-13,369.0
2003-04-14,428.0
2003-04-15,290.0
2003-04-16,333.0
2003-04-17,508.0
2003-04-18,564.0
2003-04-19,647.0
2003-04-20,403.0
2003-04-21,237.0
2003-04-22,490.0
2003-04-23,402.0
2003-04-24,485.0
2003-04-25,351.0
2003-04-26,427.0
2003-04-27,390.0
2003-04-28,503.0
2003-04-29,229.0
2003-04-30,566.0
2003-05-01,628.0
2003-05-02,355.0
2003-05-03,292.0
2003-05-04,536.0
2003-05-05,688.0
2003-05-06,357.0
2003-05-07,557.0
2003-05-08,322.0
2003-05-09,311.0
2003-05-10,350.0
2003-05-11,289.0
2003-05-12,492.0
2003-05-13,665.0
2003-05-14,692.0
2003-05-15,698.0
2003-05-16,725.0
2003-05-17,684.0
2003-05-18,733.0
2003-05-19,720.0
2003-05-20,698.0
2003-05-21,708.0
2003-05-22,716.0
2003-05-23,722.0
2003-05-24,551.0
2003-05-25,394.0
2003-05-26,709.0
2003-05-27,681.0
2003-05-28,612.0
2003-05-29,523.0
2003-05-30,703.0
2003-05-31,704.0
2003-06-01,725.0
2003-06-02,756.0
2003-06-03,754.0
2003-06-04,752.0
2003-06-05,758.0
2003-06-06,751.0
2003-06-07,717.0
2003-06-08,750.0
2003-06-09,762.0
2003-06-10,769.0
2003-06-11,759.0
2003-06-12,658.0
2003-06-13,703.0
2003-06-14,684.0
2003-06-15,698.0
2003-06-16,685.0
2003-06-17,614.0
2003-06-18,610.0
2003-06-19,547.0
2003-06-20,588.0
2003-06-21,600.0
2003-06-22,624.0
2003-06-23,627.0
2003-06-24,659.0
2003-06-25,695.0
2003-06-26,670.0
2003-06-27,681.0
2003-06-28,676.0
2003-06-29,668.0
2003-06-30,674.0
2003-07-01,714.0
2003-07-02,701.0
2003-07-03,717.0
2003-07-04,699.0
2003-07-05,700.0
2003-07-06,695.0
2003-07-07,612.0
2003-07-08,731.0
2003-07-09,731.0
2003-07-10,719.0
2003-07-11,708.0
2003-07-12,710.0
2003-07-13,720.0
2003-07-14,708.0
2003-07-15,648.0
2003-07-16,674.0
2003-07-17,688.0
2003-07-18,684.0
2003-07-19,664.0
2003-07-20,669.0
2003-07-21,673.0
2003-07-22,683.0
2003-07-23,478.0
2003-07-24,195.0
2003-07-25,484.0
2003-07-26,653.0
2003-07-27,663.0
2003-07-28,673.0
2003-07-29,692.0
2003-07-30,667.0
2003-07-31,669.0
2003-08-01,418.0
2003-08-02,227.0
2003-08-03,387.0
2003-08-04,649.0
2003-08-05,661.0
2003-08-06,634.0
2003-08-07,652.0
2003-08-08,648.0
2003-08-09,662.0
2003-08-10,659.0
2003-08-11,667.0
2003-08-12,646.0
2003-08-13,657.0
2003-08-14,592.0
2003-08-15,648.0
2003-08-16,650.0
2003-08-17,643.0
2003-08-18,627.0
2003-08-19,529.0
2003-08-20,629.0
2003-08-21,155.0
2003-08-22,262.0
2003-08-23,610.0
2003-08-24,615.0
2003-08-25,622.0
2003-08-26,378.0
2003-08-27,586.0
2003-08-28,561.0
2003-08-29,556.0
2003-08-30,568.0
2003-08-31,541.0
2003-09-01,546.0
2003-09-02,544.0
2003-09-03,410.0
2003-09-04,395.0
2003-09-05,394.0
2003-09-06,549.0
2003-09-07,344.0
2003-09-08,500.0
2003-09-09,327.0
2003-09-10,513.0
2003-09-11,515.0
2003-09-12,521.0
2003-09-13,529.0
2003-09-14,517.0
2003-09-15,497.0
2003-09-16,287.0
2003-09-17,506.0
2003-09-18,499.0
2003-09-19,472.0
2003-09-20,488.0
2003-09-21,489.0
2003-09-22,482.0
2003-09-23,479.0
2003-09-24,463.0
2003-09-25,484.0
2003-09-26,452.0
2003-09-27,446.0
2003-09-28,434.0
2003-09-29,439.0
2003-09-30,429.0
2003-10-01,403.0
2003-10-02,409.0
2003-10-03,320.0
2003-10-04,273.0
2003-10-05,361.0
2003-10-06,395.0
2003-10-07,397.0
2003-10-08,404.0
2003-10-09,372.0
2003-10-10,401.0
2003-10-11,218.0
2003-10-12,373.0
2003-10-13,371.0
2003-10-14,380.0
2003-10-15,201.0
2003-10-16,323.0
2003-10-17,340.0
2003-10-18,298.0
2003-10-19,262.0
2003-10-20,237.0
2003-10-21,323.0
2003-10-22,241.0
2003-10-23,320.0
2003-10-24,290.0
2003-10-25,306.0
2003-10-26,324.0
2003-10-27,293.0
2003-10-28,306.0
2003-10-29,313.0
2003-10-30,235.0
2003-10-31,226.0
2003-11-01,305.0
2003-11-02,105.0
2003-11-03,200.0
2003-11-04,183.0
2003-11-05,213.0
2003-11-06,121.0
2003-11-07,177.0
2003-11-08,84.0
2003-11-09,117.0
2003-11-10,143.0
2003-11-11,201.0
2003-11-12,267.0
2003-11-13,266.0
2003-11-14,116.0
2003-11-15,119.0
2003-11-16,83.0
2003-11-17,108.0
2003-11-18,218.0
2003-11-19,217.0
2003-11-20,253.0
2003-11-21,146.0
2003-11-22,246.0
2003-11-23,240.0
2003-11-24,146.0
2003-11-25,133.0
2003-11-26,194.0
2003-11-27,159.0
2003-11-28,91.0
2003-11-29,23.0
2003-11-30,73.0
2003-12-01,123.0
2003-12-02,138.0
2003-12-03,174.0
2003-12-04,46.0
2003-12-05,109.0
2003-12-06,85.0
2003-12-07,150.0
2003-12-08,208.0
2003-12-09,62.0
2003-12-10,80.0
2003-12-11,175.0
2003-12-12,54.0
2003-12-13,119.0
2003-12-14,173.0
2003-12-15,161.0
2003-12-16,147.0
2003-12-17,191.0
2003-12-18,207.0
2003-12-19,113.0
2003-12-20,78.0
2003-12-21,48.0
2003-12-22,117.0
2003-12-23,62.0
2003-12-24,79.0
2003-12-25,119.0
2003-12-26,161.0
2003-12-27,113.0
2003-12-28,98.0
2003-12-29,95.0
2003-12-30,139.0
2003-12-31,97.0
2004-01-01,125.0
2004-01-02,134.0
2004-01-03,212.0
2004-01-04,153.0
2004-01-05,137.0
2004-01-06,94.0
2004-01-07,144.0
2004-01-08,120.0
2004-01-09,91.0
2004-01-10,125.0
2004-01-11,127.0
2004-01-12,61.0
2004-01-13,217.0
2004-01-14,70.0
2004-01-15,93.0
2004-01-16,66.0
2004-01-17,79.0
2004-01-18,186.0
2004-01-19,124.0
2004-01-20,240.0
2004-01-21,249.0
2004-01-22,241.0
2004-01-23,128.0
2004-01-24,177.0
2004-01-25,159.0
2004-01-26,90.0
2004-01-27,139.0
2004-01-28,85.0
2004-01-29,144.0
2004-01-30,155.0
2004-01-31,224.0
2004-02-01,194.0
2004-02-02,85.0
2004-02-03,228.0
2004-02-04,275.0
2004-02-05,214.0
2004-02-06,155.0
2004-02-07,216.0
2004-02-08,314.0
2004-02-09,319.0
2004-02-10,307.0
2004-02-11,326.0
2004-02-12,342.0
2004-02-13,59.0
2004-02-14,206.0
2004-02-15,171.0
2004-02-16,74.0
2004-02-17,74.0
2004-02-18,273.0
2004-02-19,342.0
2004-02-20,340.0
2004-02-21,161.0
2004-02-22,131.0
2004-02-23,311.0
2004-02-24,319.0
2004-02-25,128.0
2004-02-26,191.0
2004-02-27,284.0
2004-02-28,331.0
2004-02-29,225.0
2004-03-01,229.0
2004-03-02,380.0
2004-03-03,202.0
2004-03-04,378.0